Skip Page Navigation
NASA JPL Caltech
NASA Logo - Jet Propulsion Laboratory + View the NASA Portal
+ Center for Near-Earth Object Studies
JPL Home Earth Solar System Stars & Galaxies Technology
JPL Solar System Dynamics
BODIES ORBITS EPHEMERIDES TOOLS PHYSICAL DATA DISCOVERY FAQ SITE MAP
JPL Small-Body Database Browser
Search: [ help ]  
71801 (2000 SZ265)
Classification: Main-belt Asteroid          SPK-ID: 2071801
Ephemeris | Orbit Diagram | Orbital Elements | Mission Design | Physical Parameters | Discovery Circumstances | Close-Approach Data ]

[ show orbit diagram ]
Orbital Elements at Epoch 2459000.5 (2020-May-31.0) TDB
Reference: JPL 17 (heliocentric ecliptic J2000)
 Element Value Uncertainty (1-sigma)   Units 
e .04974972584626673 2.9289e-08  
a 2.174330462364157 8.9513e-09 au
q 2.066158117962353 6.1849e-08 au
i 5.298086639093073 3.4787e-06 deg
node 73.09323346070526 5.4473e-05 deg
peri 216.851937357265 7.9867e-05 deg
M 131.9030427154921 5.8033e-05 deg
tp 2458571.419215940948
(2019-Mar-28.91921594)
0.00018921 TDB
period 1171.080507933698
3.21
7.2317e-06
1.98e-08
d
yr
n .3074084126250199 1.8983e-09 deg/d
Q 2.28250280676596 9.3967e-09 au
  Orbit Determination Parameters
   # obs. used (total)      656  
   data-arc span      7513 days (20.57 yr)  
   first obs. used      1999-04-07  
   last obs. used      2019-11-01  
   planetary ephem.      DE431  
   SB-pert. ephem.      SB431-N16  
   condition code      0  
   norm. resid. RMS      .59371  
   source      ORB  
   producer      Otto Matic  
   solution date      2019-Nov-07 08:32:52  

Additional Information
 Earth MOID = 1.05247 au 
 Jupiter MOID = 2.77413 au 
 T_jup = 3.679 
[ show covariance matrix ]

Ephemeris | Orbit Diagram | Orbital Elements | Mission Design | Physical Parameters | Discovery Circumstances | Close-Approach Data ]

Physical Parameter Table
Parameter Symbol Value Units Sigma Reference Notes
absolute magnitude H 16.3   n/a MPO439548  

71801 (2000 SZ265)          Discovered 2000-Sep-26 by LINEAR at Socorro
Reference: 20031109/Numbers.arcLast Updated: 2004-04-19

[ show close-approach data ]
Ephemeris | Orbit Diagram | Orbital Elements | Mission Design | Physical Parameters | Discovery Circumstances | Close-Approach Data ]
ABOUT SSD CREDITS/AWARDS PRIVACY/COPYRIGHT GLOSSARY LINKS
FirstGov 2020-Oct-25 14:58 UT
(server date/time)  
NASA Home Page
Site Manager:   Ryan S. Park
Webmaster  Alan B. Chamberlin